Celoron, NY

2:49 PM EDT on August 30, 2016 (GMT -0400)
Chautauqua County-Jamestown

Weather History for KJHW - January, 2014

Change the Weather History Date:

Friday, January 17, 2014

  Actual Average Record
Temperature  
Mean Temperature 28 °F -  
Max Temperature 33 °F 30 °F 51 °F (1980)
Min Temperature 24 °F 10 °F -18 °F (1982)
Degree Days  
Heating Degree Days 36    
Moisture  
Dew Point 21 °F    
Average Humidity 73    
Maximum Humidity 93    
Minimum Humidity 56    
Precipitation  
Precipitation 0.00 in - - ()
Sea Level Pressure  
Sea Level Pressure 29.74 in    
Wind  
Wind Speed 10 mph (SSW)    
Max Wind Speed 16 mph    
Max Gust Speed 22 mph    
Visibility 8 miles    
Events      
Averages and records for this station are not official NWS values.
T = Trace of Precipitation, MM = Missing Value Source: NWS Daily Summary

Daily Weather History Graph

Daily Weather History Graph

Search for Another Location

Airport or City:

Trip Planner

Search our weather history database for the weather conditions in past years. The results will help you decide how hot, cold, wet, or windy it might be!

Date:

Astronomy

Jan. 17, 2014 Rise Set
Actual Time 7:42 AM EST 5:12 PM EST
Civil Twilight 7:11 AM EST 5:43 PM EST
Nautical Twilight 6:36 AM EST 6:17 PM EST
Astronomical Twilight 6:03 AM EST 6:51 PM EST
Moon 7:00 PM EST (1/17) 8:06 AM EST (1/17)
Length of Visible Light 10h 32m
Length of Day
9h 30m
Full, 98% of the Moon is Illuminated
Jan 17
Full
Jan 24
Last Quarter
Jan 30
New
Feb 6
First Quarter
Feb 14
Full

Hourly Weather History & Observations

Time (EST) Temp. Windchill Dew Point Humidity Pressure Visibility Wind Dir Wind Speed Gust Speed Precip Events Conditions
12:15 AM 24.8 °F 14.6 °F 19.4 °F 80% 29.73 in 10.0 mi South 10.4 mph - N/A   Overcast
12:35 AM 24.8 °F 15.3 °F 17.6 °F 74% 29.72 in 10.0 mi South 9.2 mph - N/A   Overcast
12:55 AM 24.8 °F 14.6 °F 17.6 °F 74% 29.72 in 5.0 mi South 10.4 mph - N/A   Overcast
1:15 AM 24.8 °F 15.3 °F 19.4 °F 80% 29.71 in 10.0 mi South 9.2 mph - N/A   Overcast
1:35 AM 24.8 °F 13.4 °F 19.4 °F 80% 29.70 in 10.0 mi South 12.7 mph 16.1 mph N/A   Overcast
1:55 AM 24.8 °F 14.6 °F 19.4 °F 80% 29.70 in 5.0 mi South 10.4 mph - N/A   Overcast
2:15 AM 24.8 °F 16.1 °F 21.2 °F 86% 29.70 in 3.0 mi South 8.1 mph - N/A   Overcast
2:35 AM 24.8 °F 14.0 °F 21.2 °F 86% 29.70 in 3.0 mi South 11.5 mph - N/A   Overcast
2:55 AM 24.8 °F 14.0 °F 21.2 °F 86% 29.70 in 3.0 mi South 11.5 mph - N/A   Overcast
3:15 AM 24.8 °F 14.0 °F 21.2 °F 86% 29.70 in 3.0 mi South 11.5 mph - N/A   Overcast
3:35 AM 24.8 °F 14.6 °F 21.2 °F 86% 29.70 in 2.5 mi South 10.4 mph - N/A   Overcast
3:55 AM 24.8 °F 14.6 °F 21.2 °F 86% 29.69 in 3.0 mi South 10.4 mph 16.1 mph N/A   Overcast
4:15 AM 24.8 °F 14.6 °F 21.2 °F 86% 29.69 in 3.0 mi South 10.4 mph - N/A   Overcast
4:35 AM 24.8 °F 14.0 °F 21.2 °F 86% 29.69 in 4.0 mi South 11.5 mph - N/A   Overcast
4:55 AM 24.8 °F 14.0 °F 21.2 °F 86% 29.70 in 10.0 mi South 11.5 mph - N/A   Overcast
5:15 AM 26.6 °F 15.2 °F 21.2 °F 80% 29.70 in 10.0 mi SSW 13.8 mph - N/A   Overcast
5:35 AM 26.6 °F 15.2 °F 21.2 °F 80% 29.70 in 10.0 mi SSW 13.8 mph 21.9 mph N/A   Overcast
5:55 AM 26.6 °F 15.7 °F 21.2 °F 80% 29.70 in 10.0 mi SSW 12.7 mph 17.3 mph N/A   Overcast
6:15 AM 26.6 °F 16.2 °F 21.2 °F 80% 29.70 in 10.0 mi SSW 11.5 mph 17.3 mph N/A   Overcast
6:35 AM 26.6 °F 15.7 °F 21.2 °F 80% 29.71 in 10.0 mi SSW 12.7 mph 18.4 mph N/A   Overcast
6:55 AM 26.6 °F 14.3 °F 21.2 °F 80% 29.71 in 10.0 mi SSW 16.1 mph 21.9 mph N/A   Overcast
7:15 AM 26.6 °F 15.7 °F 21.2 °F 80% 29.71 in 10.0 mi SSW 12.7 mph 20.7 mph N/A   Overcast
8:35 AM 26.6 °F 17.5 °F 19.4 °F 74% 29.74 in 10.0 mi SSW 9.2 mph - N/A   Scattered Clouds
8:55 AM 28.4 °F 18.5 °F 21.2 °F 74% 29.75 in 10.0 mi SSW 11.5 mph 16.1 mph N/A   Scattered Clouds
9:15 AM 28.4 °F 19.1 °F 21.2 °F 74% 29.76 in 10.0 mi SSW 10.4 mph 18.4 mph N/A   Mostly Cloudy
9:35 AM 28.4 °F 17.0 °F 21.2 °F 74% 29.77 in 10.0 mi SSW 15.0 mph 18.4 mph N/A   Overcast
9:55 AM 28.4 °F 18.5 °F 19.4 °F 69% 29.77 in 10.0 mi SW 11.5 mph 19.6 mph N/A   Overcast
10:15 AM 28.4 °F 18.0 °F 21.2 °F 74% 29.78 in 10.0 mi SW 12.7 mph 17.3 mph N/A   Overcast
10:35 AM 30.2 °F 21.9 °F 21.2 °F 69% 29.78 in 10.0 mi SW 9.2 mph 17.3 mph N/A   Overcast
10:55 AM 30.2 °F 20.2 °F 19.4 °F 64% 29.78 in 10.0 mi SSW 12.7 mph 18.4 mph N/A   Mostly Cloudy
11:15 AM 30.2 °F 20.2 °F 21.2 °F 69% 29.78 in 10.0 mi SSW 12.7 mph 19.6 mph N/A   Mostly Cloudy
11:35 AM 30.2 °F 21.3 °F 21.2 °F 69% 29.77 in 10.0 mi SW 10.4 mph - N/A   Overcast
11:55 AM 32.0 °F 23.6 °F 21.2 °F 64% 29.77 in 10.0 mi SSW 10.4 mph - N/A   Mostly Cloudy
12:15 PM 32.0 °F 22.1 °F 19.4 °F 60% 29.76 in 10.0 mi SW 13.8 mph 17.3 mph N/A   Mostly Cloudy
12:35 PM 32.0 °F 24.2 °F 21.2 °F 64% 29.76 in 10.0 mi SSW 9.2 mph 17.3 mph N/A   Mostly Cloudy
12:55 PM 32.0 °F 23.0 °F 19.4 °F 60% 29.75 in 10.0 mi SSW 11.5 mph - N/A   Scattered Clouds
1:15 PM 32.0 °F 24.8 °F 19.4 °F 60% 29.75 in 10.0 mi SW 8.1 mph - N/A   Mostly Cloudy
1:35 PM 33.8 °F 26.4 °F 21.2 °F 60% 29.74 in 10.0 mi SW 9.2 mph - N/A   Mostly Cloudy
1:55 PM 33.8 °F 27.0 °F 19.4 °F 56% 29.74 in 10.0 mi WSW 8.1 mph - N/A   Mostly Cloudy
2:15 PM 33.8 °F 28.6 °F 21.2 °F 60% 29.74 in 10.0 mi SW 5.8 mph - N/A   Mostly Cloudy
2:35 PM 33.8 °F 28.6 °F 21.2 °F 60% 29.74 in 10.0 mi SSW 5.8 mph - N/A   Overcast
2:55 PM 33.8 °F 28.6 °F 19.4 °F 56% 29.74 in 10.0 mi SSW 5.8 mph - N/A   Overcast
3:15 PM 33.8 °F 29.6 °F 21.2 °F 60% 29.75 in 10.0 mi SSW 4.6 mph - N/A   Overcast
3:35 PM 33.8 °F 28.6 °F 21.2 °F 60% 29.75 in 10.0 mi South 5.8 mph - N/A   Overcast
3:55 PM 33.8 °F 28.6 °F 21.2 °F 60% 29.75 in 10.0 mi SSW 5.8 mph - N/A   Overcast
4:15 PM 33.8 °F 27.7 °F 21.2 °F 60% 29.75 in 10.0 mi South 6.9 mph - N/A   Overcast
4:35 PM 33.8 °F 27.7 °F 19.4 °F 56% 29.75 in 10.0 mi South 6.9 mph - N/A   Scattered Clouds
4:55 PM 33.8 °F 27.7 °F 21.2 °F 60% 29.75 in 10.0 mi South 6.9 mph - N/A   Mostly Cloudy
5:15 PM 32.0 °F 25.6 °F 19.4 °F 60% 29.75 in 10.0 mi South 6.9 mph - N/A   Partly Cloudy
5:35 PM 30.2 °F 23.4 °F 21.2 °F 69% 29.75 in 10.0 mi South 6.9 mph - N/A   Clear
5:55 PM 30.2 °F 23.4 °F 19.4 °F 64% 29.75 in 10.0 mi SSE 6.9 mph - N/A   Clear
6:15 PM 30.2 °F 21.9 °F 21.2 °F 69% 29.75 in 10.0 mi South 9.2 mph - N/A   Clear
6:35 PM 30.2 °F 23.4 °F 21.2 °F 69% 29.76 in 10.0 mi South 6.9 mph - N/A   Clear
6:55 PM 30.2 °F 23.4 °F 19.4 °F 64% 29.76 in 10.0 mi South 6.9 mph - N/A   Clear
7:15 PM 30.2 °F 24.3 °F 21.2 °F 69% 29.75 in 10.0 mi South 5.8 mph - N/A   Mostly Cloudy
7:35 PM 30.2 °F 24.3 °F 21.2 °F 69% 29.76 in 10.0 mi South 5.8 mph - N/A   Scattered Clouds
7:55 PM 30.2 °F 24.3 °F 21.2 °F 69% 29.76 in 10.0 mi South 5.8 mph - N/A   Mostly Cloudy
8:15 PM 30.2 °F 24.3 °F 21.2 °F 69% 29.76 in 10.0 mi South 5.8 mph - N/A   Overcast
8:35 PM 30.2 °F 24.3 °F 21.2 °F 69% 29.76 in 10.0 mi SSE 5.8 mph - N/A   Overcast
8:55 PM 30.2 °F 24.3 °F 23.0 °F 75% 29.76 in 10.0 mi South 5.8 mph - N/A   Overcast
9:15 PM 30.2 °F 23.4 °F 24.8 °F 80% 29.76 in 10.0 mi South 6.9 mph - N/A   Overcast
9:35 PM 30.2 °F 22.6 °F 24.8 °F 80% 29.76 in 10.0 mi South 8.1 mph - N/A   Mostly Cloudy
9:55 PM 30.2 °F 22.6 °F 26.6 °F 86% 29.76 in 1.8 mi South 8.1 mph - N/A   Overcast
10:15 PM 30.2 °F 20.8 °F 26.6 °F 86% 29.76 in 2.5 mi SSW 11.5 mph - N/A   Overcast
10:35 PM 28.4 °F 19.1 °F 24.8 °F 86% 29.77 in 5.0 mi SW 10.4 mph - N/A   Overcast
10:55 PM 28.4 °F 19.7 °F 26.6 °F 93% 29.77 in 4.0 mi SSW 9.2 mph - N/A   Overcast
11:15 PM 28.4 °F 21.2 °F 26.6 °F 93% 29.77 in 2.0 mi SW 6.9 mph - N/A   Overcast
11:35 PM 28.4 °F 16.6 °F 24.8 °F 86% 29.77 in 2.5 mi West 16.1 mph - N/A   Overcast
11:55 PM 26.6 °F 16.2 °F 23.0 °F 86% 29.77 in 2.5 mi WSW 11.5 mph - N/A   Overcast